FW3232 Weather Reports


time (UTC)temp
F
wind
direction
speed
knots
gust
knots
rain 1hr
in
rain 24hr
in
rain mn
in
humidity
%
barometer
mb
20260510164413 69 88 1.7 8.7 0.00 0.00 0.00 64 1018.4
20260510163915 69 53 5.2 9.6 0.00 0.00 0.00 66 1018.1
20260510163411 69 110 3.5 7.8 0.00 0.00 0.00 66 1018.1
20260510162911 69 107 3.5 7.0 0.00 0.00 0.00 64 1018.2
20260510162411 69 97 1.7 8.7 0.00 0.00 0.00 66 1018.2
20260510161911 69 113 2.6 7.0 0.00 0.00 0.00 65 1018.1
20260510161412 69 98 3.5 7.0 0.00 0.00 0.00 65 1018.1
20260510160911 69 76 1.7 6.1 0.00 0.00 0.00 66 1018.0
20260510160411 68 120 3.5 9.6 0.00 0.00 0.00 68 1018.0
20260510155912 69 128 0.9 7.8 0.00 0.00 0.00 67 1017.9
20260510155411 69 130 5.2 8.7 0.00 0.00 0.00 68 1017.8
20260510154912 69 121 1.7 7.0 0.00 0.00 0.00 66 1017.5
20260510154412 69 117 4.3 7.0 0.00 0.00 0.00 67 1017.3
20260510153911 68 106 0.0 6.1 0.00 0.00 0.00 66 1017.3
20260510153412 68 132 4.3 7.8 0.00 0.00 0.00 69 1017.3
20260510152911 67 117 1.7 10.4 0.00 0.00 0.00 69 1017.3
20260510152411 68 114 7.0 10.4 0.00 0.00 0.00 70 1017.2
20260510151912 68 83 2.6 6.1 0.00 0.00 0.00 69 1017.2
20260510151412 68 114 2.6 7.0 0.00 0.00 0.00 68 1017.2
20260510150911 68 60 3.5 7.0 0.00 0.00 0.00 68 1017.2
20260510150412 68 55 2.6 5.2 0.00 0.00 0.00 69 1017.2
20260510145912 68 73 1.7 7.0 0.00 0.00 0.00 70 1017.3
20260510145412 68 54 1.7 3.5 0.00 0.00 0.00 69 1017.5
20260510144913 68 80 1.7 5.2 0.00 0.00 0.00 69 1017.5
20260510144411 68 359 0.9 4.3 0.00 0.00 0.00 70 1017.6
20260510143911 68 80 1.7 5.2 0.00 0.00 0.00 69 1017.7
20260510143412 68 17 1.7 4.3 0.00 0.00 0.00 69 1017.7
20260510142912 68 64 1.7 8.7 0.00 0.00 0.00 70 1017.8
20260510142411 69 52 3.5 6.1 0.00 0.00 0.00 69 1017.9
20260510141912 69 18 2.6 6.1 0.00 0.00 0.00 69 1017.9
20260510141411 70 31 2.6 6.1 0.00 0.00 0.00 68 1018.0
20260510140911 71 55 1.7 5.2 0.00 0.00 0.00 66 1017.8
20260510140412 72 55 2.6 5.2 0.00 0.00 0.00 65 1017.7
20260510135911 73 60 1.7 5.2 0.00 0.00 0.00 61 1017.6
20260510135411 73 35 2.6 5.2 0.00 0.00 0.00 61 1017.3
20260510134911 71 52 1.7 4.3 0.00 0.00 0.00 63 1017.2
20260510134412 69 88 0.9 5.2 0.00 0.00 0.00 65 1017.1
20260510133911 68 37 1.7 3.5 0.00 0.00 0.00 67 1016.9
20260510133411 67 28 0.9 4.3 0.00 0.00 0.00 71 1016.9
20260510132912 67 14 1.7 4.3 0.00 0.00 0.00 71 1016.8
20260510132411 68 23 1.7 5.2 0.00 0.00 0.00 71 1016.7
20260510131912 68 45 1.7 7.0 0.00 0.00 0.00 72 1016.7
20260510131412 68 20 2.6 7.0 0.00 0.00 0.00 72 1016.4
20260510130911 68 9 3.5 5.2 0.00 0.00 0.00 73 1016.3
20260510130411 66 106 0.0 2.6 0.00 0.00 0.00 76 1016.2
20260510125916 66 159 0.9 2.6 0.00 0.00 0.00 77 1016.1
20260510125412 65 146 0.0 1.7 0.00 0.00 0.00 77 1016.0
20260510124911 64 0 0.0 0.9 0.00 0.00 0.00 78 1016.0
20260510124411 63 0 0.0 0.9 0.00 0.00 0.00 81 1015.9
20260510123911 62 0 0.0 0.0 0.00 0.00 0.00 82 1015.8
20260510123411 61 0 0.0 1.7 0.00 0.00 0.00 84 1015.8
20260510122911 61 311 0.9 1.7 0.00 0.00 0.00 85 1015.8
20260510122412 60 0 0.0 1.7 0.00 0.00 0.00 85 1015.7
20260510121912 60 150 0.9 1.7 0.00 0.00 0.00 85 1015.4
20260510121411 59 0 0.0 0.0 0.00 0.00 0.00 89 1015.4
20260510120912 58 0 0.0 0.0 0.00 0.00 0.00 90 1015.4
20260510120412 58 0 0.0 1.7 0.00 0.00 0.00 91 1015.4
20260510115911 58 0 0.0 0.9 0.00 0.00 0.00 91 1015.5
20260510115412 57 0 0.0 0.0 0.00 0.00 0.00 91 1015.4
20260510114912 57 0 0.0 1.7 0.00 0.00 0.00 91 1015.4
20260510114412 57 150 0.0 1.7 0.00 0.00 0.00 91 1015.4
20260510113911 57 339 0.0 1.7 0.00 0.00 0.00 91 1015.3
20260510113412 57 345 1.7 1.7 0.00 0.00 0.00 90 1015.3
20260510112912 58 347 0.0 1.7 0.00 0.00 0.00 89 1015.2
20260510112411 58 0 0.0 1.7 0.00 0.00 0.00 89 1015.2
20260510111911 58 0 0.0 0.0 0.00 0.00 0.00 90 1015.2
20260510111412 58 0 0.0 0.0 0.00 0.00 0.00 90 1015.2
20260510110911 58 0 0.0 0.0 0.00 0.00 0.00 89 1015.1
20260510110412 59 0 0.0 0.0 0.00 0.00 0.00 89 1015.0
20260510105911 59 0 0.0 0.0 0.00 0.00 0.00 88 1015.1
20260510105411 59 0 0.0 1.7 0.00 0.00 0.00 86 1015.1
20260510104912 59 345 0.9 1.7 0.00 0.00 0.00 85 1015.1
20260510104411 60 350 0.0 1.7 0.00 0.00 0.00 84 1015.0
20260510103911 60 335 0.0 1.7 0.00 0.00 0.00 84 1015.0
20260510103411 60 0 0.0 0.0 0.00 0.00 0.00 85 1015.0
20260510102911 60 0 0.0 0.9 0.00 0.00 0.00 85 1014.9
20260510102412 60 0 0.0 1.7 0.00 0.00 0.00 82 1014.9
20260510101911 60 345 1.7 2.6 0.00 0.00 0.00 82 1014.9
20260510101411 60 345 0.9 1.7 0.00 0.00 0.00 82 1014.9
20260510100911 60 337 0.9 2.6 0.00 0.00 0.00 82 1014.8
20260510100411 60 341 0.0 1.7 0.00 0.00 0.00 84 1014.6
20260510095912 60 7 0.0 1.7 0.00 0.00 0.00 85 1014.6
20260510095411 60 154 0.9 1.7 0.00 0.00 0.00 85 1014.6
20260510094911 60 0 0.0 1.7 0.00 0.00 0.00 81 1014.6
20260510094411 60 345 0.0 1.7 0.00 0.00 0.00 82 1014.3
20260510093911 59 343 0.9 1.7 0.00 0.00 0.00 86 1014.1
20260510093412 59 0 0.0 1.7 0.00 0.00 0.00 86 1014.1
20260510092911 59 334 0.9 2.6 0.00 0.00 0.00 85 1014.0
20260510092411 59 348 1.7 1.7 0.00 0.00 0.00 87 1013.9
20260510091911 59 0 0.0 1.7 0.00 0.00 0.00 86 1013.8
20260510091411 59 160 0.0 1.7 0.00 0.00 0.00 87 1013.8
20260510090911 59 0 0.0 0.9 0.00 0.00 0.00 86 1013.7
20260510090411 58 323 0.0 0.9 0.00 0.00 0.00 87 1013.7
20260510085911 58 0 0.0 1.7 0.00 0.00 0.00 86 1013.7
20260510085412 59 148 0.0 1.7 0.00 0.00 0.00 86 1013.8
20260510084912 58 0 0.0 0.9 0.00 0.00 0.00 85 1013.9
20260510084411 58 190 0.0 1.7 0.00 0.00 0.00 86 1014.1
20260510083911 58 341 0.0 0.9 0.00 0.00 0.00 87 1014.1
20260510083411 58 0 0.0 2.6 0.00 0.00 0.00 87 1013.9
20260510082911 57 355 0.0 1.7 0.00 0.00 0.00 89 1013.7
20260510082412 58 0 0.0 2.6 0.00 0.00 0.00 89 1013.4
20260510081911 57 0 0.0 0.9 0.00 0.00 0.00 89 1013.3
20260510081412 57 311 0.9 1.7 0.00 0.00 0.00 89 1013.4
20260510080911 57 323 0.0 0.9 0.00 0.00 0.00 89 1013.3
20260510080412 57 0 0.0 1.7 0.00 0.00 0.00 88 1013.2
20260510075912 57 0 0.0 1.7 0.00 0.00 0.00 87 1013.3
20260510075412 57 345 0.9 1.7 0.00 0.00 0.00 87 1013.2
20260510074912 57 0 0.0 0.0 0.00 0.00 0.00 87 1013.2
20260510074411 57 0 0.0 0.0 0.00 0.00 0.00 87 1013.3
20260510073911 57 0 0.0 0.9 0.00 0.00 0.00 86 1013.5
20260510073411 57 315 0.0 4.3 0.00 0.00 0.00 87 1013.5
20260510072911 57 0 0.0 0.0 0.00 0.00 0.00 86 1013.5
20260510072411 57 0 0.0 0.9 0.00 0.00 0.00 86 1013.5
20260510071911 57 355 0.0 0.9 0.00 0.00 0.00 86 1013.4
20260510071411 57 0 0.0 1.7 0.00 0.00 0.00 87 1013.4
20260510070912 57 0 0.0 0.9 0.00 0.00 0.00 87 1013.4
20260510070413 57 0 0.0 0.0 0.00 0.00 0.00 87 1013.4
20260510065911 57 0 0.0 0.0 0.00 0.00 0.00 86 1013.3
20260510065412 57 0 0.0 0.0 0.00 0.00 0.00 87 1013.4
20260510064912 57 0 0.0 0.0 0.00 0.00 0.00 86 1013.5
20260510064411 57 0 0.0 0.0 0.00 0.00 0.00 86 1013.6
20260510063912 57 0 0.0 0.0 0.00 0.00 0.00 86 1013.5
20260510063412 57 0 0.0 0.0 0.00 0.00 0.00 85 1013.6
20260510062912 57 0 0.0 0.0 0.00 0.00 0.00 85 1013.7
20260510062411 57 0 0.0 0.0 0.00 0.00 0.00 84 1013.7
20260510061911 57 0 0.0 1.7 0.00 0.00 0.00 84 1013.8
20260510061411 57 359 0.0 1.7 0.00 0.00 0.00 84 1013.8
20260510060911 57 353 0.9 1.7 0.00 0.00 0.00 83 1013.8
20260510060411 58 356 0.0 1.7 0.00 0.00 0.00 83 1013.8
20260510055911 58 0 0.0 0.0 0.00 0.00 0.00 84 1013.8
20260510055411 58 0 0.0 0.0 0.00 0.00 0.00 83 1013.8
20260510054911 58 0 0.0 0.9 0.00 0.00 0.00 80 1013.8
20260510054411 58 0 0.0 0.9 0.00 0.00 0.00 81 1013.8
20260510053911 58 0 0.0 0.9 0.00 0.00 0.00 81 1013.7
20260510053412 58 0 0.0 1.7 0.00 0.00 0.00 81 1013.7
20260510052911 58 37 0.0 1.7 0.00 0.00 0.00 82 1013.7
20260510052412 58 0 0.0 1.7 0.00 0.00 0.00 80 1013.6
20260510051912 58 339 0.9 1.7 0.00 0.00 0.00 82 1013.6
20260510051411 58 148 0.9 2.6 0.00 0.00 0.00 81 1013.7
20260510050912 58 343 0.9 1.7 0.00 0.00 0.00 79 1013.6
20260510050411 58 13 0.0 1.7 0.00 0.00 0.00 81 1013.6
20260510045911 58 0 0.0 1.7 0.00 0.00 0.00 78 1013.6
20260510045411 58 13 0.0 0.9 0.00 0.00 0.00 78 1013.6
20260510044914 59 357 0.0 0.9 0.00 0.00 0.00 80 1013.6
20260510044411 59 0 0.0 1.7 0.00 0.00 0.00 78 1013.5
20260510043911 59 0 0.0 1.7 0.00 0.00 0.00 78 1013.5
20260510043411 59 322 0.0 1.7 0.00 0.00 0.00 77 1013.4
20260510042911 59 349 1.7 1.7 0.00 0.00 0.00 77 1013.4
20260510042411 59 182 0.0 1.7 0.00 0.00 0.00 78 1013.4
20260510041911 59 0 0.0 0.0 0.00 0.00 0.00 78 1013.4
20260510041412 59 0 0.0 1.7 0.00 0.00 0.00 77 1013.4
20260510040911 59 347 1.7 2.6 0.00 0.00 0.00 76 1013.5
20260510040411 60 14 0.0 1.7 0.00 0.00 0.00 76 1013.4
20260510035911 60 341 0.9 1.7 0.00 0.00 0.00 76 1013.2
20260510035411 60 349 1.7 1.7 0.00 0.00 0.00 77 1013.2
20260510034912 60 356 1.7 1.7 0.00 0.00 0.00 76 1013.1
20260510034411 60 335 1.7 1.7 0.00 0.00 0.00 77 1013.0
20260510033911 60 348 1.7 1.7 0.00 0.00 0.00 76 1013.0
20260510033411 60 347 0.9 1.7 0.00 0.00 0.00 76 1012.9
20260510032912 60 350 1.7 1.7 0.00 0.00 0.00 75 1012.9
20260510032411 61 356 0.0 1.7 0.00 0.00 0.00 75 1012.7
20260510031911 61 0 0.0 0.9 0.00 0.00 0.00 75 1012.7
20260510031411 61 0 0.0 0.9 0.00 0.00 0.00 74 1012.8
20260510030911 61 333 0.0 1.7 0.00 0.00 0.00 74 1012.7
20260510030412 62 343 0.9 1.7 0.00 0.00 0.00 74 1012.7
20260510025911 62 331 0.0 1.7 0.00 0.00 0.00 73 1012.7
20260510025411 62 348 0.9 1.7 0.00 0.00 0.00 73 1012.6
20260510024912 63 1 0.0 2.6 0.00 0.00 0.00 74 1012.4
20260510024411 63 345 1.7 1.7 0.00 0.00 0.00 74 1012.2
20260510023911 63 3 0.9 2.6 0.00 0.00 0.00 71 1012.1
20260510023411 63 318 1.7 1.7 0.00 0.00 0.00 71 1012.0
20260510022911 62 321 0.0 0.9 0.00 0.00 0.00 73 1011.9
20260510022411 62 0 0.0 1.7 0.00 0.00 0.00 71 1011.8
20260510021911 62 339 1.7 1.7 0.00 0.00 0.00 74 1011.6
20260510021411 62 345 1.7 1.7 0.00 0.00 0.00 72 1011.6
20260510020911 63 347 0.9 1.7 0.00 0.00 0.00 73 1011.5
20260510020412 63 350 1.7 1.7 0.00 0.00 0.00 73 1011.3
20260510015912 63 345 0.9 1.7 0.00 0.00 0.00 72 1011.3
20260510015411 63 348 1.7 1.7 0.00 0.00 0.00 73 1011.2
20260510014911 64 358 0.9 2.6 0.00 0.00 0.00 72 1011.2
20260510014411 64 342 0.9 2.6 0.00 0.00 0.00 72 1011.2
20260510013911 64 355 1.7 2.6 0.00 0.00 0.00 71 1011.1
20260510013411 64 349 1.7 1.7 0.00 0.00 0.00 71 1011.0
20260510012912 65 352 1.7 1.7 0.00 0.00 0.00 71 1010.9
20260510012411 65 344 1.7 1.7 0.00 0.00 0.00 72 1010.8
20260510011911 66 345 0.9 1.7 0.00 0.00 0.00 71 1010.7
20260510011411 66 339 0.9 1.7 0.00 0.00 0.00 71 1010.7
20260510010911 67 348 0.9 1.7 0.00 0.00 0.00 70 1010.7
20260510010411 67 344 1.7 2.6 0.00 0.00 0.00 70 1010.6
20260510005911 68 345 1.7 2.6 0.00 0.00 0.00 68 1010.6
20260510005412 69 0 0.0 0.9 0.00 0.00 0.00 66 1010.6
20260510004912 70 4 0.0 1.7 0.00 0.00 0.00 65 1010.5
20260510004411 71 334 0.9 1.7 0.00 0.00 0.00 62 1010.5
20260510003912 72 349 1.7 2.6 0.00 0.00 0.00 60 1010.4
20260510003411 73 358 1.7 2.6 0.00 0.00 0.00 58 1010.5
20260510002911 74 353 1.7 1.7 0.00 0.00 0.00 55 1010.4
20260510002412 76 343 1.7 1.7 0.00 0.00 0.00 55 1010.4
20260510001912 76 353 0.0 1.7 0.00 0.00 0.00 55 1010.3
20260510001411 78 350 0.9 1.7 0.00 0.00 0.00 53 1010.3
20260510000912 78 327 0.9 1.7 0.00 0.00 0.00 54 1010.3
20260510000411 78 330 0.9 1.7 0.00 0.00 0.00 53 1010.3
20260509235912 79 338 1.7 1.7 0.00 0.00 0.00 51 1010.3
20260509235411 79 327 0.9 1.7 0.00 0.00 0.00 52 1010.3
20260509234911 80 316 1.7 2.6 0.00 0.00 0.00 49 1010.4
20260509234411 82 316 0.9 2.6 0.00 0.00 0.00 46 1010.4
20260509233912 83 324 0.0 2.6 0.00 0.00 0.00 44 1010.2
20260509233411 82 296 0.9 1.7 0.00 0.00 0.00 43 1010.2
20260509232911 82 332 0.9 5.2 0.00 0.00 0.00 45 1010.2
20260509232411 83 231 0.0 1.7 0.00 0.00 0.00 41 1010.3
20260509231911 82 342 0.0 2.6 0.00 0.00 0.00 41 1010.3
20260509231411 81 334 0.0 2.6 0.00 0.00 0.00 41 1010.4
20260509230911 82 342 1.7 2.6 0.00 0.00 0.00 40 1010.4
20260509230411 82 241 0.0 1.7 0.00 0.00 0.00 40 1010.4
20260509225911 83 334 0.0 4.3 0.00 0.00 0.00 38 1010.4
20260509225411 85 296 1.7 7.0 0.00 0.00 0.00 35 1010.3
20260509224911 86 344 1.7 7.0 0.00 0.00 0.00 33 1010.2
20260509224411 86 356 1.7 5.2 0.00 0.00 0.00 31 1010.2
20260509223911 86 290 0.9 4.3 0.00 0.00 0.00 32 1010.2
20260509223411 85 152 0.0 4.3 0.00 0.00 0.00 34 1010.2
20260509222912 85 324 2.6 6.1 0.00 0.00 0.00 35 1010.1
20260509222411 85 46 0.9 6.1 0.00 0.00 0.00 33 1010.2
20260509221912 85 14 2.6 6.1 0.00 0.00 0.00 33 1010.1
20260509221411 86 59 2.6 5.2 0.00 0.00 0.00 34 1010.1
20260509220911 86 78 0.9 7.0 0.00 0.00 0.00 32 1010.2
20260509220411 87 50 2.6 5.2 0.00 0.00 0.00 31 1010.1
20260509215911 87 318 1.7 6.1 0.00 0.00 0.00 31 1010.1
20260509215411 86 136 0.9 3.5 0.00 0.00 0.00 32 1010.2
20260509214912 87 52 1.7 3.5 0.00 0.00 0.00 32 1010.2
20260509214412 87 46 0.0 3.5 0.00 0.00 0.00 31 1010.3
20260509213912 87 29 0.9 5.2 0.00 0.00 0.00 31 1010.3
20260509213411 88 213 0.9 5.2 0.00 0.00 0.00 29 1010.3
20260509212911 87 51 0.9 5.2 0.00 0.00 0.00 30 1010.4
20260509212411 86 140 3.5 4.3 0.00 0.00 0.00 31 1010.4
20260509211911 87 135 1.7 4.3 0.00 0.00 0.00 30 1010.4
20260509211413 87 54 2.6 7.0 0.00 0.00 0.00 30 1010.5
20260509210911 88 101 2.6 6.1 0.00 0.00 0.00 30 1010.5
20260509210411 87 242 0.9 3.5 0.00 0.00 0.00 30 1010.5
20260509205911 86 14 0.9 4.3 0.00 0.00 0.00 31 1010.5
20260509205411 86 71 1.7 5.2 0.00 0.00 0.00 30 1010.5
20260509204912 87 101 2.6 7.8 0.00 0.00 0.00 31 1010.6
20260509204411 88 7 1.7 6.1 0.00 0.00 0.00 30 1010.5
20260509203911 88 13 3.5 6.1 0.00 0.00 0.00 31 1010.5
20260509203411 88 344 2.6 7.0 0.00 0.00 0.00 31 1010.5
20260509202911 87 350 2.6 6.1 0.00 0.00 0.00 31 1010.6
20260509202411 87 59 1.7 6.1 0.00 0.00 0.00 32 1010.7
20260509201911 87 144 1.7 2.6 0.00 0.00 0.00 31 1010.7
20260509201412 87 60 1.7 4.3 0.00 0.00 0.00 31 1010.8
20260509200911 88 132 0.9 5.2 0.00 0.00 0.00 30 1010.8
20260509200411 87 55 1.7 5.2 0.00 0.00 0.00 30 1010.8
20260509194411 84 104 1.7 4.3 0.00 0.00 0.00 32 1011.1
20260509193911 84 147 2.6 5.2 0.00 0.00 0.00 37 1011.1
20260509193411 84 150 2.6 4.3 0.00 0.00 0.00 33 1011.1
20260509192912 83 324 2.6 4.3 0.00 0.00 0.00 34 1011.1
20260509192411 81 296 0.9 3.5 0.00 0.00 0.00 40 1011.2
20260509191911 81 135 1.7 7.0 0.00 0.00 0.00 39 1011.7
20260509191411 82 168 3.5 7.0 0.00 0.00 0.00 40 1011.7
20260509190912 83 189 1.7 7.0 0.00 0.00 0.00 39 1011.3
20260509190412 82 151 2.6 7.8 0.00 0.00 0.00 39 1011.2
20260509185912 82 183 3.5 8.7 0.00 0.00 0.00 39 1011.2
20260509185412 83 164 6.1 8.7 0.00 0.00 0.00 40 1011.3
20260509184911 83 151 2.6 7.0 0.00 0.00 0.00 40 1011.3
20260509184411 82 159 4.3 6.1 0.00 0.00 0.00 40 1011.5
20260509183911 82 184 3.5 7.0 0.00 0.00 0.00 41 1011.5
20260509183411 82 156 3.5 7.0 0.00 0.00 0.00 42 1011.5
20260509182912 81 186 1.7 7.0 0.00 0.00 0.00 41 1011.3
20260509182411 81 252 1.7 7.8 0.00 0.00 0.00 42 1011.5
20260509181911 82 327 2.6 7.8 0.00 0.00 0.00 43 1011.3
20260509181411 82 313 4.3 7.0 0.00 0.00 0.00 43 1011.5
20260509180911 82 189 2.6 5.2 0.00 0.00 0.00 45 1011.3
20260509180411 82 127 1.7 7.8 0.00 0.00 0.00 44 1011.3
20260509175919 81 155 4.3 8.7 0.00 0.00 0.00 45 1011.5
20260509175411 82 175 4.3 7.0 0.00 0.00 0.00 44 1011.5
20260509174911 81 197 1.7 7.0 0.00 0.00 0.00 45 1011.5
20260509174412 80 165 2.6 7.8 0.00 0.00 0.00 48 1011.5
20260509173911 81 155 5.2 7.8 0.00 0.00 0.00 48 1011.6
20260509173411 80 159 2.6 7.8 0.00 0.00 0.00 52 1011.7
20260509172913 79 156 3.5 7.8 0.00 0.00 0.00 52 1011.7
20260509172411 79 169 5.2 8.7 0.00 0.00 0.00 54 1011.8
20260509171911 79 162 7.8 9.6 0.00 0.00 0.00 54 1011.8
20260509171412 79 160 6.1 9.6 0.00 0.00 0.00 54 1011.7
20260509170911 79 152 6.1 8.7 0.00 0.00 0.00 56 1011.7
20260509170412 79 187 3.5 7.8 0.00 0.00 0.00 58 1011.8
20260509165915 79 198 3.5 9.6 0.00 0.00 0.00 55 1011.8
20260509165411 78 171 2.6 7.8 0.00 0.00 0.00 59 1011.9
20260509164911 77 161 5.2 9.6 0.00 0.00 0.00 60 1011.9